VIASAT-3 (56370 NORAD) Tracking and Keplerian Element Data

This shows tracking and keplerian element data for the satellite.

Feedback or suggestion? Click here.




ElementValue
Catalog56370
NameVIASAT-3
Epoch Orbit115
Epoch Day238.86372021
Epoch Year2023
RAAN90.4872
Inclination0.0282
Eccentricity9.13E-05
Argument of Perigee311.4302
Mean Anonmoly134.331
Mean Motion0.9975915
Decay Rate9E-08
L11 56370U 23060A 23238.86372021 .00000009 00000+0 00000+0 0 9996
L22 56370 0.0282 90.4872 0000913 311.4302 134.3310 0.99759150 1159



Live tracking and technical data element details for VIASAT-3 (NORAD 56370). VIASAT-3 can be tracked NOW for your location showing map with azimuth and elevation plus other details from your city location.







IsCatalogInMostPopularTable: catalog: 56370, numindb: 10
Update: records affected: 1



GetName: 56370 VIASAT-3

Hit Count: updated at: Thu, 28 Sep 2023 04:58:19 GMT